This demonstration page uses our WeatherBlox Daily Observations layout. Learn more.

Left ArrowRight Arrow

36.19886, -115.1175

Hourly Observations for March 2, 2017

Temp ( °F °C ) Dew Point ( °F °C ) Humidity (%) Winds ( mph kmh ) Pressure ( in mb ) Visibility ( mi km ) Precip ( " mm )
12:53 am 00:53 Clear 48 8.9 16 -8.9 28 28 NNW 8 13 30.41 1030 10 16 N/A
1:53 am 01:53 Clear 50 10 15 -9.4 25 25 NNW 12 19 30.40 1030 10 16 N/A
2:53 am 02:53 Clear 46 7.8 17 -8.3 31 31 E 3 6 30.40 1030 10 16 N/A
3:53 am 03:53 Clear 45 7.2 17 -8.3 33 33 NNW 10 17 30.41 1030 10 16 N/A
4:53 am 04:53 Clear 45 7.2 18 -7.8 34 34 NNW 6 9 30.42 1030 10 16 N/A
5:53 am 05:53 Clear 43 6.1 18 -7.8 37 37 ESE 3 6 30.45 1031 10 16 N/A
6:53 am 06:53 Sunny 46 7.8 19 -7.2 34 34 N 7 11 30.46 1031 10 16 N/A
7:53 am 07:53 Sunny 50 10 19 -7.2 29 29 N N/A 30.48 1032 10 16 N/A
8:53 am 08:53 Sunny 55 12.8 18 -7.8 23 23 NE 8 13 30.47 1032 10 16 N/A
9:53 am 09:53 Sunny 57 13.9 16 -8.9 20 20 N N/A 30.46 1031 10 16 N/A
10:53 am 10:53 Sunny 59 15 13 -10.6 16 16 N N/A 30.44 1031 10 16 N/A
11:53 am 11:53 Sunny 61 16.1 11 -11.7 14 14 ESE 3 6 30.41 1030 10 16 N/A
12:53 pm 12:53 Sunny 63 17.2 12 -11.1 13 13 S 5 7 30.37 1029 10 16 N/A
1:53 pm 13:53 Sunny 65 18.3 11 -11.7 12 12 N N/A 30.34 1027 10 16 N/A
2:53 pm 14:53 Sunny 66 18.9 10 -12.2 11 11 N N/A 30.32 1027 10 16 N/A
3:53 pm 15:53 Sunny 67 19.4 8 -13.3 10 10 WNW 3 6 30.29 1026 10 16 N/A
4:53 pm 16:53 Sunny 67 19.4 7 -13.9 9 9 E 8 13 30.27 1025 10 16 N/A
5:53 pm 17:53 Clear 64 17.8 10 -12.2 12 12 E 3 6 30.27 1025 10 16 N/A
6:53 pm 18:53 Clear 64 17.8 9 -12.8 11 11 W 5 7 30.27 1025 10 16 N/A
7:53 pm 19:53 Clear 55 12.8 18 -7.8 23 23 NNE 3 6 30.29 1026 10 16 N/A
8:53 pm 20:53 Clear 54 12.2 19 -7.2 25 25 NW 5 7 30.28 1025 10 16 N/A
9:53 pm 21:53 Clear 52 11.1 18 -7.8 26 26 NW 7 11 30.28 1025 10 16 N/A
10:53 pm 22:53 Clear 51 10.6 18 -7.8 27 27 NNW 7 11 30.27 1025 10 16 N/A
11:53 pm 23:53 Clear 50 10 19 -7.2 29 29 N N/A 30.27 1025 10 16 N/A

Powered by AerisWeather